Satellite: AO-40 Catalog number: 26609 Epoch time: 02183.61222222 Element set: 233 Inclination: 7.5158 deg RA of node: 106.7062 deg Eccentricity: 0.7920636 Arg of perigee: 65.0933 deg Mean anomaly: 354.0070 deg Mean motion: 1.25596215 rev/day Decay rate: -1.01000e-06 rev/day^2 Epoch rev: 768 Checksum: 264